Content
SEND FEEDBACK

Daily
Averages
Monthly
Summary
United States of America

SHERIDAN, OREGON


Home > North America > United States > Oregon
Elevation: 88 meters     Latitude: 45 03N     Longitude: 123 30W

WEATHER
 
SELECT A DAY
Number of Records: 200,832;   Date Range: 1/1/95 - 8/12/14
 
SHARE

PRINT THIS DATA

[ ← Previous Day ]
WEATHER ALMANAC - 13 FEBRUARY, 2013
[ Next Day → ]
[ °F ]   °C
Weather ElementAverageHighLow
Temperature9.7 °C11.7 °C (1:56 pm)7.8 °C (11:56 pm)
Dewpoint6.1 °C7.8 °C (12:56 pm)4.4 °C (5:56 pm)
Humidity78.7 %90 % (7:56 am)64 % (3:56 pm)
Barometer1031.8 hPa1033.5 hPa (11:56 pm)1030.8 hPa (6:56 am)
Wind Speed10.1 km/h18.5 km/h (6:56 am)
Weather ElementAverage
Visibility16.1 km
Wind DirectionSSE (166.7 °)

Weather ElementTotal
Precipitation---
Heating Degree Days8.6 (Base 18.3)
Averaged from 24 records on 13 February, 2013
WEATHER CONDITIONS BREAKOUT
WIND DIRECTION BREAKOUT
WEATHER BY HOUR - 13 FEBRUARY, 2013
[ °F ]   °C
Local TimeTemperatureDewpointHumidityBarometerVisibilityWind DirectionWind SpeedGust SpeedPrecipitationEventsConditions
1:56 AM8.9 °C6.1 °C83 %1031.2 hPa16.1 kmSouth (190°)16.7 km/hOvercast
2:56 AM8.9 °C6.1 °C83 %1031.2 hPa16.1 kmSouth (190°)11.1 km/hOvercast
3:56 AM8.9 °C6.7 °C86 %1031.2 hPa16.1 kmSSE (160°)9.3 km/hOvercast
4:56 AM8.9 °C6.7 °C86 %1031.2 hPa16.1 kmSSE (160°)11.1 km/hOvercast
5:56 AM8.9 °C6.7 °C86 %1031.2 hPa16.1 kmSouth (180°)13 km/hOvercast
6:56 AM8.9 °C6.7 °C86 %1030.8 hPa16.1 kmSouth (180°)18.5 km/hOvercast
7:56 AM8.3 °C6.7 °C90 %1031.2 hPa16.1 kmSouth (170°)13 km/hScattered Clouds
8:56 AM9.4 °C7.2 °C86 %1031.8 hPa16.1 kmSouth (170°)14.8 km/hMostly Cloudy
9:56 AM10 °C7.2 °C83 %1032.2 hPa16.1 kmSouth (190°)9.3 km/hOvercast
10:35 AM10 °C7 °C82 %1032.5 hPa16.1 kmSouth (180°)9.3 km/hOvercast
10:56 AM10.6 °C7.2 °C80 %1032.5 hPa16.1 kmSSW (200°)11.1 km/hOvercast
11:56 AM11.1 °C7.2 °C77 %1032.2 hPa16.1 kmSSW (210°)13 km/hOvercast
12:56 PM11.1 °C7.8 °C80 %1031.5 hPa16.1 kmSouth (190°)14.8 km/hOvercast
1:56 PM11.7 °C7.2 °C74 %1031.2 hPa16.1 kmSSW (200°)18.5 km/hOvercast
2:56 PM11.7 °C6.7 °C71 %1030.8 hPa16.1 kmSSW (200°)11.1 km/hOvercast
3:56 PM11.7 °C5 °C64 %1031.2 hPa16.1 kmVariable9.3 km/hOvercast
4:56 PM10.6 °C5 °C68 %1031.2 hPa16.1 kmNW (320°)7.4 km/hOvercast
5:56 PM10 °C4.4 °C68 %1031.5 hPa16.1 kmNW (310°)13 km/hOvercast
6:56 PM10 °C4.4 °C68 %1031.8 hPa16.1 kmNW (310°)13 km/hOvercast
7:56 PM9.4 °C4.4 °C71 %1032.2 hPa16.1 kmWNW (290°)7.4 km/hOvercast
8:56 PM8.9 °C4.4 °C74 %1032.5 hPa16.1 kmCalmOvercast
9:56 PM8.3 °C5 °C80 %1033.2 hPa16.1 kmCalmOvercast
10:56 PM8.3 °C5 °C80 %1033.2 hPa16.1 kmCalmOvercast
11:56 PM7.8 °C5 °C83 %1033.5 hPa16.1 kmCalmOvercast
Hourly data recorded from KSLE, located 0 kilometers away from Sheridan, Oregon







STORIES FROM OUR PARTNERS